Home > Time Zones > World Clock > Weather > Iran > Tehran > Past weeks

Flag for Iran Weather past 2 weeks in Tehran, Iran

Now
48 °F

Sprinkles. Broken clouds.


Feels Like: 45 °F
Forecast: 36 / 48 °F
Wind: 7 mph from Northwest

Location: Tehran-Mehrabad

Current Time: Dec 20, 2014 at 4:00:38 PM

Latest Report: Dec 20, 2014 at 3:30 PM


Visibility: 2 mi

Pressure: 30.09 "Hg

Humidity: 58%

Dew point: 34 °F

Location of TehranLocation

Historic Weather in Tehran — Graph

°F

Tehran temperature yesterday

Maximum temperature yesterday: 48 °F (at 1:00 PM)
Minimum temperature yesterday: 39 °F (at 12:30 AM)
Average temperature yesterday: 44 °F

Past Weeks' High & Low Weather Summary

 TemperatureHumidityPressure
High61 °F (Dec 11, 3:00 PM)87% (Dec 17, 4:30 AM)30.51 "Hg (Dec 17, 4:30 AM)
Low37 °F (Dec 8, 4:00 AM)24% (Dec 15, 1:30 PM)30.09 "Hg (Dec 11, 1:30 PM)
Average46 °F50%30.26 "Hg
* Reported Dec 5 2:30 PM — Dec 20 3:00 PM, Tehran, Weather by CustomWeather, © 2014

Note: Actual official high and low records may vary slightly from our data, if they occured in-between our weather recording intervals... More about our weather records

Advertising

Tehran weather history for previous 24 hours

 ConditionsComfort  
Time TempWeatherWind HumidityBarometerVisibility
3:00 PM
Dec 20
50 °FMore clouds than sun.16 mph47%30.09 "Hg2 mi
2:30 PM50 °FMore clouds than sun.7 mph47%30.09 "Hg1 mi
2:00 PM50 °FMore clouds than sun.5 mph47%30.09 "Hg1 mi
1:30 PM48 °FMore clouds than sun.7 mph54%30.12 "Hg1 mi
1:00 PM46 °FMore clouds than sun.5 mph57%30.12 "Hg1 mi
12:30 PM46 °FMore clouds than sun.7 mph57%30.12 "Hg2 mi
12:00 PM48 °FBroken clouds.7 mph50%30.15 "Hg2 mi
11:30 AM48 °FBroken clouds.7 mph50%30.15 "Hg3 mi
11:00 AM48 °FBroken clouds.7 mph50%30.18 "Hg3 mi
10:30 AM46 °FBroken clouds.7 mph53%30.18 "Hg2 mi
10:00 AM45 °FBroken clouds.No wind57%30.21 "Hg2 mi
9:30 AM43 °FOvercast.No wind66%30.21 "Hg1 mi
9:00 AM43 °FOvercast.5 mph66%30.18 "Hg2 mi
8:30 AM43 °FPartly sunny.5 mph66%30.18 "Hg2 mi
8:00 AM43 °FPartly sunny.5 mph66%30.15 "Hg2 mi
7:30 AM43 °FPassing clouds.No wind66%30.15 "Hg2 mi
7:00 AM41 °FPassing clouds.No wind66%30.15 "Hg4 mi
6:30 AM41 °FPassing clouds.7 mph66%30.15 "Hg4 mi
6:00 AM43 °FPassing clouds.No wind61%30.15 "Hg4 mi
5:30 AM41 °FPassing clouds.5 mph66%30.15 "Hg4 mi
4:30 AM41 °FPassing clouds.No wind66%30.15 "Hg4 mi
3:30 AM41 °FPassing clouds.7 mph66%30.15 "Hg4 mi
3:00 AM41 °FPartly cloudy.No wind66%30.15 "Hg4 mi
2:30 AM41 °FPartly cloudy.No wind66%30.15 "Hg4 mi
2:00 AM43 °FPartly cloudy.No wind61%30.15 "Hg4 mi
1:30 AM43 °FPartly cloudy.No wind57%30.15 "Hg4 mi
1:00 AM43 °FPartly cloudy.5 mph61%30.15 "Hg4 mi
12:30 AM43 °FPartly cloudy.5 mph61%30.15 "Hg4 mi
12:00 AM43 °FPartly cloudy.7 mph57%30.18 "Hg4 mi
11:30 PM
Dec 19
43 °FPartly cloudy.7 mph57%30.15 "Hg4 mi
11:00 PM45 °FPartly cloudy.No wind57%30.15 "Hg4 mi
10:30 PM46 °FPartly cloudy.No wind53%30.15 "Hg4 mi
10:00 PM45 °FPartly cloudy.5 mph57%30.15 "Hg4 mi
9:30 PM46 °FPartly cloudy.No wind53%30.18 "Hg4 mi
9:00 PM46 °FMostly cloudy.5 mph53%30.18 "Hg4 mi
8:30 PM46 °FMostly cloudy.5 mph53%30.18 "Hg4 mi
8:00 PM45 °FMostly cloudy.9 mph53%30.18 "Hg4 mi
7:30 PM46 °FMostly cloudy.12 mph53%30.18 "Hg4 mi
7:00 PM46 °FMostly cloudy.14 mph53%30.12 "Hg3 mi
6:30 PM45 °FMostly cloudy.No wind53%30.18 "Hg3 mi
6:00 PM45 °FMostly cloudy.7 mph53%30.18 "Hg2 mi
5:30 PM45 °FMostly cloudy.7 mph53%30.18 "Hg1 mi
5:00 PM46 °FMore clouds than sun.7 mph50%30.18 "Hg1 mi
4:30 PM46 °FMore clouds than sun.9 mph53%30.18 "Hg1 mi
4:00 PM46 °FOvercast.9 mph50%30.15 "Hg2 mi
Weather by CustomWeather, © 2014

See weather overviewHow to use our weather pages